[[{"header":{"parameterUnit":"m.s-1","parameterCategory":1,"la1":30.2992,"la2":30.254,"lo1":-89.0895,"lo2":-89.0443,"dy":0.0025,"dx":0.0025,"nx":19,"ny":19,"refTime":"2026-03-20T21:00:00:Z","depth":0,"parameterNumber":2,"parameterNumberName":"U-component_of_WINDS"},"data":[0,0,0,0.7389,0.7393,0.7604,0.7605,0.7848,0.785,0,0,0,0,0,0,0,0,0,0,0,0.7312,0.7313,0.7389,0.7394,0.7604,0.7605,0.7847,0.785,0,0,0,0,0,0,0,0,0,0,0,0.7312,0.7313,0.7315,0.7395,0.7603,0.7605,0.7847,0.7698,0,0,0,0,0,0,0,0,0,0,0.7498,0.7413,0.7313,0.7315,0.7396,0.7603,0.7605,0.7691,0.7707,0.7742,0,0.777,0,0.7813,0.7865,0.7865,0,0,0,0.7405,0.7399,0.7469,0.7315,0.7398,0.7603,0.7512,0.77,0.7718,0.7763,0.7773,0.7783,0.7817,0.7866,0.7867,0.8033,0.8033,0,0,0.7393,0.7342,0.7456,0.748,0.7446,0.7505,0.7518,0.7711,0.7719,0.7774,0.7789,0.7821,0.7867,0.7869,0.8033,0.8033,0,0,0,0.7353,0.7333,0.74,0.7469,0.7509,0.7511,0.7526,0.7711,0.7736,0.7792,0.7824,0.7869,0.7871,0.8032,0.8033,0.7995,0,0,0,0.7346,0.731,0.7394,0.7364,0.7505,0.7613,0.752,0.7723,0.7746,0.7823,0.7869,0.7873,0.8032,0.8033,0.7995,0.7986,0,0,0,0.7304,0.7305,0.733,0.7361,0.745,0.7611,0.7648,0.7729,0.7766,0.7865,0.7874,0.8032,0.8032,0.7996,0.7987,0.8014,0,0,0,0.7244,0.7295,0.7329,0.7398,0.7448,0.7586,0.7647,0.7753,0.7834,0.787,0.8032,0.8033,0.7996,0.7987,0.8014,0.8026,0.8027,0,0,0.7279,0.7297,0.7342,0.7379,0.7497,0.7558,0.7672,0.7795,0.7851,0.7969,0.7974,0.7995,0.7987,0.8014,0.805,0.805,0,0,0,0.7336,0.7367,0.741,0.7485,0.7579,0.766,0.7771,0.7816,0.7919,0.7901,0.8014,0.8011,0.8029,0.8037,0.8037,0.8055,0.8034,0.8034,0.8034,0.7312,0.7381,0.746,0.7554,0.7625,0.7739,0.7803,0.7883,0.7933,0.7958,0.7993,0.8007,0.8015,0.8015,0.8033,0.8006,0.8006,0.8006,0.8006,0.737,0.7425,0.7489,0.7587,0.7659,0.7743,0.7854,0.7885,0.7973,0.7986,0.8006,0.8013,0.8013,0.8033,0.8004,0.8004,0.8004,0.8005,0.8005,0.7362,0.74,0.7455,0.7569,0.7649,0.7743,0.7824,0.7887,0.7947,0.7966,0.801,0.8011,0.8019,0.7983,0.7983,0.7983,0.7983,0.7983,0.7983,0.7332,0.7394,0.7455,0.7559,0.7615,0.7696,0.781,0.7866,0.7945,0.7985,0.7985,0.8031,0.8001,0.7991,0.7984,0.7984,0.7984,0.7983,0.7983,0.7364,0.7367,0.746,0.7516,0.7643,0.7717,0.7797,0.7906,0.7962,0.8,0.8042,0.8009,0.8032,0.8032,0.8025,0.8027,0.8027,0.8027,0.8027,0.7356,0.7374,0.7484,0.7568,0.7658,0.7739,0.7842,0.793,0.8021,0.806,0.8069,0.8065,0.8062,0.8087,0.8086,0.808,0.8096,0.8096,0.8096,0.7379,0.7409,0.7484,0.7574,0.7677,0.7764,0.7862,0.7956,0.8061,0.81,0.8091,0.8088,0.8082,0.8077,0.8116,0.8113,0.8104,0,0]},{"header":{"parameterUnit":"m.s-1","parameterCategory":1,"la1":30.2992,"la2":30.254,"lo1":-89.0895,"lo2":-89.0443,"dy":0.0025,"dx":0.0025,"nx":19,"ny":19,"refTime":"2026-03-20T21:00:00:Z","depth":0,"parameterNumber":3,"parameterNumberName":"V-component_of_WINDS"},"data":[0,0,0,4.2519,4.2518,4.249,4.2489,4.2476,4.2476,0,0,0,0,0,0,0,0,0,0,0,4.2542,4.2543,4.2519,4.2518,4.249,4.2489,4.2476,4.2476,0,0,0,0,0,0,0,0,0,0,0,4.2542,4.2543,4.2543,4.2518,4.249,4.2489,4.2476,4.2489,0,0,0,0,0,0,0,0,0,0,4.2513,4.255,4.2543,4.2543,4.2518,4.249,4.2489,4.2489,4.2488,4.2499,0,4.2514,0,4.2495,4.2477,4.2477,0,0,0,4.2507,4.2551,4.253,4.2543,4.2518,4.249,4.2499,4.2488,4.2487,4.2498,4.2514,4.2513,4.2495,4.2477,4.2477,4.2581,4.2582,0,0,4.2508,4.2545,4.2531,4.253,4.2537,4.25,4.2499,4.2487,4.2507,4.2514,4.2512,4.2495,4.2477,4.2477,4.258,4.2581,0,0,0,4.2521,4.2547,4.2525,4.2531,4.2524,4.25,4.2498,4.2507,4.2497,4.2512,4.2495,4.2477,4.2477,4.2579,4.2581,4.2668,0,0,0,4.2521,4.2554,4.2526,4.2549,4.2525,4.2515,4.2518,4.2498,4.2495,4.2495,4.2477,4.2477,4.2578,4.258,4.2663,4.2703,0,0,0,4.2539,4.2556,4.2557,4.2551,4.254,4.2515,4.2503,4.2496,4.2485,4.2477,4.2477,4.2577,4.2579,4.2658,4.2695,4.2741,0,0,0,4.2569,4.2636,4.2559,4.2627,4.2541,4.2569,4.2503,4.2522,4.2525,4.2477,4.2578,4.258,4.2657,4.2691,4.2736,4.2785,4.2809,0,0,4.2674,4.265,4.2686,4.2617,4.2669,4.2571,4.2634,4.2602,4.2567,4.2578,4.258,4.2664,4.2695,4.274,4.2931,4.2951,0,0,0,4.2732,4.2759,4.2764,4.2769,4.2746,4.2729,4.2682,4.267,4.2678,4.258,4.2692,4.2709,4.2733,4.2755,4.2772,4.279,4.2592,4.2592,4.2592,4.2934,4.2885,4.2942,4.289,4.2895,4.2846,4.2845,4.282,4.277,4.2797,4.28,4.2922,4.2949,4.2961,4.2981,4.2822,4.2822,4.2822,4.2823,4.3082,4.3112,4.3043,4.3073,4.3021,4.3046,4.3,4.2964,4.2978,4.2916,4.2935,4.2872,4.2984,4.2999,4.2829,4.2828,4.2827,4.2826,4.2826,4.3209,4.3215,4.3199,4.3199,4.3205,4.3149,4.3166,4.3118,4.3072,4.3091,4.3089,4.3087,4.3079,4.3094,4.3094,4.3094,4.3095,4.3095,4.3095,4.3347,4.3326,4.3347,4.3327,4.3323,4.3311,4.3261,4.3255,4.3236,4.3199,4.3199,4.3146,4.3004,4.297,4.3102,4.3101,4.31,4.3099,4.3099,4.3516,4.347,4.3502,4.3498,4.347,4.3478,4.3416,4.3408,4.3396,4.3405,4.3347,4.325,4.3222,4.3208,4.3179,4.3358,4.3358,4.3358,4.3358,4.3623,4.3604,4.3625,4.3622,4.3612,4.3559,4.3595,4.3556,4.3509,4.3498,4.3465,4.3422,4.341,4.3389,4.3371,4.3343,4.356,4.356,4.356,4.3724,4.3701,4.3742,4.3696,4.367,4.3648,4.368,4.3678,4.3614,4.3567,4.3488,4.3479,4.341,4.339,4.3343,4.3317,4.3264,0,0]}]]